Weather in Vasiljevka

Ukraine / Dnipropetrovsk Region     48°42′41″N   35°33′28″E
temp.,
°C
wind,
m/s
gust,
m/s
humid.,
%
clouds,
%
prec.,
mm/h
press.,
hPa
HPBL,
m
21 april, wed
wed2100:00+9wnw5895100 1.1 1004532
03:00+8w5995100 1.2 1007449
06:00+6wsw51095100 0.1 1010366
09:00+9w687899 0.1 1012753
12:00+13wsw6855100 0.1 10131886
15:00+13wsw5852100 0.2 10141681
18:00+13sw48568 0.1 10151181
21:00+9ssw347027 0.3 101749
22 april, thu
thu2200:00+8sw337919 0.1 101834
03:00+7sw22835 0.1 101922
06:00+6sw33895 0.0 102050
09:00+12ssw45695 0.0 1021485
12:00+16sw44505 0.0 10211611
15:00+17ssw444095 0.0 10202428
18:00+14s3660100 0.0 1020180
21:00+12s486572 0.0 1021209
23 april, fri
fri2300:00+9s38827 0.1 1021146
03:00+8ssw37948 0.6 1020162
06:00+7s38920 0.3 1020184
09:00+13ssw69689 0.3 1020642
12:00+16ssw78505 0.0 10191471
15:00+17ssw7944100 0.0 10172542
18:00+16ssw71054100 0.1 10161015
21:00+12s61267100 0.3 1016368
24 april, sat
sat2400:00+11ssw61172100 0.0 1014690
03:00+7nw7990100 1.6 1015543
06:00+5nw59866 0.1 1016753
09:00+8wnw46675 0.1 1017967
12:00+12w57455 0.1 10172022
15:00+12w6736100 0.1 10172395
18:00+11wsw4549100 0.0 10171008
21:00+6w2882100 0.4 1018418
25 april, sun
sun2500:00+6w378265 0.1 1018261
03:00+4w38880 0.2 1018219
06:00+3w37862 0.0 1019190
09:00+8w465822 0.0 10191016
12:00+11w564059 0.0 10191899
15:00+12w5736100 0.0 10182461
18:00+12w454284 0.0 10171947
21:00+7nnw357268 0.0 1018140